Home > Weather > Philipsburg > Past weeks

Flag for Sint Maarten Weather for the Past 2 Weeks in Philipsburg, Sint Maarten

Now
79 °F

Passing clouds.


Feels Like: 82 °F
Forecast: 80 / 85 °F
Wind: 8 mph from East

Location: Juliana Airport - Saint Maarten

Current Time: May 5, 2016 at 3:52:09 AM

Latest Report: May 5, 2016 at 3:00 AM


Visibility: N/A

Pressure: 29.95 "Hg

Humidity: 89%

Dew Point: 75 °F

Location of PhilipsburgLocation

Historic Weather in Philipsburg — Graph

°F

Philipsburg Temperature Yesterday

Maximum temperature yesterday: 84 °F (at 10:00 AM)
Minimum temperature yesterday: 77 °F (at 2:00 PM)
Average temperature yesterday: 81 °F

High & Low Weather Summary for the Past Weeks

 TemperatureHumidityPressure
High86 °F (Apr 24, 3:00 PM)100% (May 2, 8:00 AM)30.07 "Hg (May 2, 8:00 AM)
Low73 °F (Apr 30, 7:00 PM)55% (Apr 21, 11:00 AM)29.83 "Hg (Apr 26, 3:00 AM)
Average81 °F80%29.96 "Hg
* Reported Apr 20 2:00 AM — May 5 2:00 AM, Philipsburg, Weather by CustomWeather, © 2016

Note: Actual official high and low records may vary slightly from our data, if they occured in-between our weather recording intervals... More about our weather records

Advertising

Philipsburg Weather History for the Previous 24 Hours

Scroll right to see more
 ConditionsComfort  
Time TempWeatherWind HumidityBarometerVisibility
2:00 AM
Thu, May 5
79 °FPassing clouds.10 mph84%29.98 "HgN/A
1:00 AM81 °FPassing clouds.10 mph79%29.98 "HgN/A
12:00 AM81 °FPassing clouds.10 mph79%30.01 "HgN/A
10:00 PM
Wed, May 4
81 °FPassing clouds.12 mph79%30.01 "HgN/A
8:00 PM81 °FPassing clouds.9 mph79%29.98 "HgN/A
7:00 PM81 °FPassing clouds.9 mph79%29.98 "HgN/A
6:00 PM81 °FScattered clouds.10 mph79%29.95 "HgN/A
5:00 PM82 °FScattered clouds.9 mph74%29.95 "HgN/A
4:00 PM82 °FPassing clouds.10 mph74%29.95 "HgN/A
3:00 PM81 °FScattered clouds.8 mph84%29.95 "HgN/A
2:00 PM77 °FSprinkles. Broken clouds.7 mph94%29.98 "HgN/A
1:00 PM84 °FPartly sunny.10 mph74%29.98 "HgN/A
11:00 AM84 °FScattered clouds.10 mph70%30.01 "HgN/A
10:00 AM84 °FScattered clouds.12 mph70%30.04 "HgN/A
9:00 AM82 °FScattered clouds.12 mph74%30.04 "HgN/A
8:00 AM82 °FScattered clouds.9 mph74%30.01 "HgN/A
7:00 AM81 °FScattered clouds.8 mph79%30.01 "HgN/A
6:00 AM79 °FBroken clouds.8 mph84%29.98 "HgN/A
5:00 AM79 °FPassing clouds.8 mph84%29.98 "HgN/A
4:00 AM79 °FPassing clouds.10 mph84%29.98 "HgN/A
3:00 AM79 °FPassing clouds.8 mph84%29.98 "HgN/A
Weather by CustomWeather, © 2016

See weather overviewHow to use our weather pages